Torna al catalogo

STARLINK-1458

AttivoComunicazioniVLEO
NORAD 45675·PAYLOAD·🇺🇸 United States

Lanciato Jun 4, 2020 da Cape Canaveral Space Force Station

Loading…

Prossimi Passaggi (prossime 24 ore)

TLE

AggiornatoSource: CelesTrak SupGP

Epoca: Sep 15, 2026, 01:49 UTC

1 45675C 20035U   26258.07618056  .00066148  00000+0  40993-3 0  2583
2 45675  53.0394 214.1049 0005462  77.5975 135.4540 15.76303525    11

Traccia STARLINK-1458 in tempo reale con AllMySat

Download on the App Store